Printer-friendly version

IAU Minor Planet Center

Minor Planet Center

MPEC 2006-K57 : 2006 KZ39

The following Minor Planet Electronic Circular may be linked-to from your own Web pages, but must not otherwise be redistributed electronically.


Read MPEC 2006-K56 Read MPEC 2006-K58


M.P.E.C. 2006-K57                                Issued 2006 May 27, 18:10 UT

     The Minor Planet Electronic Circulars contain information on unusual
         minor planets and routine data on comets.  They are published
   on behalf of Commission 20 of the International Astronomical Union by the
          Minor Planet Center, Smithsonian Astrophysical Observatory,
                          Cambridge, MA 02138, U.S.A.

                  Supported in part by the Brinson Foundation
                  Supported in part by the TABASGO Foundation
             Prepared using the Tamkin Foundation Computer Network

                              MPC@CFA.HARVARD.EDU
          URL http://cfa-www.harvard.edu/iau/mpc.html  ISSN 1523-6714

                                   2006 KZ39

Observations:
     K06K39Z* C2006 05 25.14835 08 55 57.25 +18 06 33.6          21.6 V EK057G96
     K06K39Z  C2006 05 25.15293 08 55 58.00 +18 06 25.2          21.3 V EK057G96
     K06K39Z  C2006 05 25.15743 08 55 58.80 +18 06 16.5          21.3 V EK057G96
     K06K39Z  C2006 05 25.16191 08 55 59.59 +18 06 07.9          21.7 V EK057G96
     K06K39Z  C2006 05 25.17134 08 56 01.14 +18 05 51.2          21.6 V EK057G96
     K06K39Z  C2006 05 25.17711 08 56 02.05 +18 05 40.7          21.8 V EK057G96
     K06K39Z  C2006 05 25.18291 08 56 03.07 +18 05 29.8          21.3 V EK057G96
     K06K39Z  C2006 05 25.18859 08 56 04.00 +18 05 19.6          21.4 V EK057G96
     K06K39Z  C2006 05 26.15038 08 58 46.56 +17 36 35.6          21.4 V EK057G96
     K06K39Z  C2006 05 26.15576 08 58 47.42 +17 36 26.0          20.1 V EK057G96
     K06K39Z HC2006 05 26.15632 08 58 47.54 +17 36 25.9                 EK057291
     K06K39Z  C2006 05 26.16028 08 58 48.26 +17 36 17.9                 EK057291
     K06K39Z  C2006 05 26.16130 08 58 48.32 +17 36 15.8          21.1 V EK057G96
     K06K39Z  C2006 05 26.16670 08 58 49.18 +17 36 06.2          21.2 V EK057G96
     K06K39Z HC2006 05 26.16712 08 58 49.39 +17 36 06.1                 EK057291
     K06K39Z  C2006 05 27.15365 09 01 29.82 +17 07 09.5          20.9 V EK057G96
     K06K39Z  C2006 05 27.16326 09 01 31.33 +17 06 52.2          21.1 V EK057G96
     K06K39Z  C2006 05 27.16811 09 01 32.08 +17 06 43.8          20.9 V EK057G96

Observer details:
291 LPL/Spacewatch II.  Observer T. H. Bressi.  1.8-m f/2.7 reflector + CCD.
G96 Mt. Lemmon Survey.  Observers E. J. Christensen, R. A. Kowalski,
    A. D. Grauer.  Measurers E. C. Beshore, E. J. Christensen, G. J. Garradd,
    A. R. Gibbs, A. D. Grauer, R. E. Hill, R. A. Kowalski, S. M. Larson,
    R. H. McNaught.  1.5-m reflector + CCD.

Orbital elements:
2006 KZ39                                                Earth MOID = 0.0690 AU
Epoch 2006 Mar. 6.0 TT = JDT 2453800.5                  MPC
M  27.47422              (2000.0)            P               Q
n   2.04026913     Peri.  353.98529     +0.80280814     -0.58598470
a   0.6156649      Node    42.52462     +0.55360215     +0.66401380
e   0.5251803      Incl.    9.37443     +0.22141308     +0.46444332
P   0.48           H   20.2           G   0.15           U   9
Residuals in seconds of arc
060525 G96  0.2-  0.1+    060525 G96  0.1+  0.0     060526 G96  0.8-  0.4-
060525 G96  0.5-  0.2+    060525 G96  0.3-  0.2+    060526 G96  1.0-  0.2-
060525 G96  0.2+  0.3-    060526 G96  0.9-  0.3-    060526 291  1.0+  0.2+
060525 G96  0.8+  0.6-    060526 G96  0.9-  0.2-    060527 G96  0.2-  0.1+
060525 G96  0.3+  0.1+    060526 291  0.6-  0.5+    060527 G96  0.1+  0.2-
060525 G96  0.5-  0.2+    060526 291  0.6+  0.4-    060527 G96  0.0   0.0

Ephemeris:
2006 KZ39                a,e,i = 0.62, 0.53, 9                   Q = 0.9390
Date    TT    R. A. (2000) Decl.     Delta      r     Elong.  Phase     V
2006 05 25    08 55.54   +18 11.2    0.398    0.937    67.6    89.3    21.2
2006 05 30    09 08.69   +15 46.8    0.416    0.930    66.5    89.3    21.3
2006 06 04    09 19.50   +13 36.1    0.432    0.918    64.9    89.9    21.4
2006 06 09    09 28.25   +11 38.7    0.447    0.903    62.8    91.1    21.5
2006 06 14    09 35.07   +09 54.5    0.459    0.882    60.2    93.0    21.5

Kyle E. Smalley              (C) Copyright 2006 MPC           M.P.E.C. 2006-K57

Read MPEC 2006-K56 Read MPEC 2006-K58


Our Web policy. Index to the CBAT/MPC/ICQ pages.


Valid HTML 4.01!